Покателло

США     42°52′23″N   112°27′00″W
темп.,
°C
ветер,
м/с
пор.,
м/с
влажн.,
%
обл.,
%
осадки,
мм/ч
давл.,
гПа
погр.,
м
16 октября, сб
сб1600:00+2ююв57560 0.0 1031100
03:00+1юв45590 0.0 103179
06:000юв44625 0.0 103144
09:00+3юв34525 0.0 103091
12:00+11юв33280 0.0 1025562
15:00+14ююв23225 0.0 1022944
18:00+13ююв22300 0.0 102028
21:00+7юв33410 0.0 102124
17 октября, вс
вс1700:00+6юв33475 0.0 102128
03:00+5юв43505 0.0 101938
06:00+4юв45550 0.0 101854
09:00+6юв47530 0.0 1017146
12:00+15ююв711290 0.0 1012932
15:00+17ю91223100 0.0 10081156
18:00+14ю6123299 0.0 1008639
21:00+9юв4643100 0.0 100873
18 октября, пн
пн1800:00+9юв5641100 0.0 100669
03:00+8юв5844100 0.0 1005116
06:00+8юв4446100 0.0 100455
09:00+9юв5124398 0.0 1003438
12:00+14ю81226100 0.0 10012884
15:00+11ююв4844100 0.1 10041627
18:00+8зсз5553100 0.1 1005487
21:00+4зсз2487100 0.3 1010644
19 октября, вт
вт1900:00+4зюз2495100 1.9 1012716
03:00+4зюз3889100 0.4 1014867
06:00+4з2895100 2.3 1016847
09:00+4зюз2593100 1.3 1019615
12:00+4ю128893 1.5 1020458
15:00+7ююв226689 0.1 1019939
18:00+7юв3362100 0.1 1019490
21:00+6вюв237358 0.0 1020165
20 октября, ср
ср2000:00+4юв3379100 0.0 102132
03:00+2юв338484 0.0 102242
06:00+2юв448483 0.0 102354
09:00+3юв357796 0.0 1023124
12:00+10ююв5748100 0.0 1020718
15:00+13ююз6634100 0.0 10181146
18:00+10ю3547100 0.0 1019100
21:00+7ююв455755 0.0 102273